Palacios, TX

8:47 PM CST on January 21, 2018 (GMT -0600)
Palacios Municipal

Weather History for KPSX - February, 2014

Change the Weather History Date:

Monday, February 3, 2014

  Actual Average Record
Temperature  
Mean Temperature 42 °F -  
Max Temperature 48 °F 61 °F 78 °F (1954)
Min Temperature 37 °F 43 °F 16 °F (1951)
Degree Days  
Heating Degree Days 24    
Moisture  
Dew Point 39 °F    
Average Humidity 88    
Maximum Humidity 93    
Minimum Humidity 82    
Precipitation  
Precipitation 0.00 in - - ()
Sea Level Pressure  
Sea Level Pressure 30.13 in    
Wind  
Wind Speed 15 mph (NNE)    
Max Wind Speed 23 mph    
Max Gust Speed 29 mph    
Visibility 8 miles    
Events      
Averages and records for this station are not official NWS values.
T = Trace of Precipitation, MM = Missing Value Source: NWS Daily Summary

Daily Weather History Graph

Daily Weather History Graph

Search for Another Location

Airport or City:

Trip Planner

Search our weather history database for the weather conditions in past years. The results will help you decide how hot, cold, wet, or windy it might be!

Date:

Astronomy

Feb. 03, 2014 Rise Set
Actual Time 7:12 AM CST 6:05 PM CST
Civil Twilight 6:47 AM CST 6:30 PM CST
Nautical Twilight 6:19 AM CST 6:58 PM CST
Astronomical Twilight 5:51 AM CST 7:26 PM CST
Moon 9:39 AM CST (2/3) 10:29 PM CST (2/3)
Length of Visible Light 11h 43m
Length of Day
10h 53m
Waxing Crescent, 20% of the Moon is Illuminated
Feb 3
Waxing Crescent
Feb 6
First Quarter
Feb 14
Full
Feb 22
Last Quarter
Mar 1
New

Hourly Weather History & Observations

Time (CST) Temp. Windchill Dew Point Humidity Pressure Visibility Wind Dir Wind Speed Gust Speed Precip Events Conditions
12:53 AM 39.9 °F 30.2 °F 37.0 °F 89% 30.17 in 8.0 mi North 20.7 mph - N/A   Overcast
1:06 AM 39.9 °F 29.7 °F 37.0 °F 89% 30.17 in 9.0 mi North 23.0 mph 28.8 mph N/A   Overcast
1:53 AM 39.0 °F 29.3 °F 36.0 °F 89% 30.18 in 7.0 mi North 19.6 mph 26.5 mph N/A   Overcast
2:53 AM 39.0 °F 29.3 °F 36.0 °F 89% 30.17 in 7.0 mi North 19.6 mph - N/A   Overcast
3:53 AM 37.9 °F 29.6 °F 36.0 °F 93% 30.18 in 6.0 mi North 13.8 mph - N/A   Overcast
4:53 AM 37.9 °F 29.2 °F 36.0 °F 93% 30.17 in 7.0 mi North 15.0 mph - N/A   Overcast
5:53 AM 37.9 °F 29.2 °F 36.0 °F 93% 30.18 in 8.0 mi North 15.0 mph - N/A   Overcast
6:53 AM 37.9 °F 29.2 °F 36.0 °F 93% 30.20 in 7.0 mi North 15.0 mph - N/A   Overcast
7:53 AM 37.9 °F 29.2 °F 36.0 °F 93% 30.22 in 8.0 mi North 15.0 mph - N/A   Overcast
8:53 AM 39.0 °F 31.0 °F 36.0 °F 89% 30.21 in 8.0 mi NNE 13.8 mph - N/A   Overcast
9:53 AM 39.9 °F 31.8 °F 37.0 °F 89% 30.22 in 10.0 mi NNE 15.0 mph - N/A   Overcast
10:53 AM 42.1 °F 35.7 °F 37.9 °F 85% 30.22 in 10.0 mi NNE 11.5 mph - N/A   Overcast
11:53 AM 42.1 °F 37.7 °F 37.9 °F 85% 30.20 in 9.0 mi North 6.9 mph - N/A   Overcast
12:53 PM 43.0 °F 36.8 °F 39.0 °F 86% 30.14 in 6.0 mi NNE 11.5 mph - N/A   Overcast
1:53 PM 44.1 °F 38.1 °F 39.9 °F 85% 30.11 in 6.0 mi North 11.5 mph - N/A   Overcast
2:53 PM 44.1 °F 38.6 °F 39.9 °F 85% 30.09 in 5.0 mi NNE 10.4 mph - N/A   Overcast
3:53 PM 45.0 °F 40.1 °F 39.9 °F 82% 30.07 in 6.0 mi NNE 9.2 mph - N/A   Haze
4:14 PM 45.0 °F 41.2 °F 41.0 °F 86% 30.07 in 6.0 mi NNE 6.9 mph - N/A   Overcast
4:53 PM 45.0 °F 41.8 °F 41.0 °F 86% 30.08 in 6.0 mi North 5.8 mph - N/A   Overcast
5:53 PM 46.0 °F - 42.1 °F 86% 30.07 in 8.0 mi Calm Calm - N/A   Overcast
6:53 PM 46.9 °F - 42.1 °F 83% 30.08 in 10.0 mi ENE 5.8 mph - N/A   Overcast
7:53 PM 46.9 °F - 42.1 °F 83% 30.07 in 10.0 mi ENE 12.7 mph - N/A   Overcast
8:12 PM 46.0 °F 41.0 °F 43.0 °F 89% 30.07 in 10.0 mi ENE 10.4 mph - N/A   Overcast
8:53 PM 46.0 °F 40.2 °F 43.0 °F 89% 30.06 in 10.0 mi NE 12.7 mph - N/A   Overcast
9:53 PM 46.0 °F 41.9 °F 43.0 °F 89% 30.06 in 5.0 mi NNE 8.1 mph - N/A   Overcast
10:53 PM 46.0 °F 40.2 °F 44.1 °F 93% 30.01 in 5.0 mi ENE 12.7 mph - N/A   Overcast
11:53 PM 48.0 °F - 46.0 °F 93% 29.97 in 7.0 mi East 15.0 mph - N/A   Overcast